Regional Weather Roundup
Issued by NWS San Angelo, TX

Home | Current Version | Previous Version | Text Only | Print | Product List | Glossary On
Versions: 1 2 3 4 5 6 7 8 9 10 11 12 13 14 15 16 17 18 19 20 21 22 23 24 25 26 27 28 29 30 31 32 33 34 35 36 37 38 39 40 41 42 43 44 45 46 47 48 49 50
000
ASUS44 KSJT 310210
RWRSJT
WEST CENTRAL TEXAS REGIONAL WEATHER ROUNDUP
NATIONAL WEATHER SERVICE SAN ANGELO TX
900 PM CDT THU JUL 30 2015

NOTE: "FAIR" INDICATES FEW OR NO CLOUDS BELOW 12,000 FEET WITH NO
SIGNIFICANT WEATHER AND/OR OBSTRUCTIONS TO VISIBILITY.

TXZ049-054-064>066-071>073-076>078-098-099-113-114-127-128-139-140-
154-155-168>170-310300
...LOCATIONS ACROSS WEST CENTRAL TEXAS...

CITY           SKY/WX    TMP DP  RH WIND       PRES   REMARKS
SAN ANGELO     CLEAR     90  60  36 E8        30.05R
ABILENE        CLEAR     89  65  44 SE8       30.08R
DYESS AFB      CLEAR     92  66  42 SE9       30.06R
JUNCTION       CLEAR     92  56  29 SE7       30.05R
SWEETWATER     CLEAR     88  60  38 SE7       30.12R
BROWNWOOD      CLEAR     86  66  51 NE6       30.05R
COLEMAN        CLEAR     87  67  51 NE5       30.07R
SONORA         CLEAR     91  52  25 E3        30.10R
OZONA          FAIR      91  50  24 SE6       30.09R
BRADY          CLEAR     91  61  35 E3        30.06R
$$

TEXAS PANHANDLE/OKLAHOMA PANHANDLE

CITY           SKY/WX    TMP DP  RH WIND       PRES   REMARKS
AMARILLO       CLOUDY    79  66  64 SE6       30.23R
BORGER         MOCLDY    83  70  64 NE5       30.19S
CANADIAN       PTCLDY    81  72  74 SE7       30.16R
DALHART        MOCLDY    76  69  79 NE6       30.25F
DUMAS          PTCLDY    74  67  79 E5        30.24S
GUYMON         NOT AVBL
HEREFORD       CLOUDY    74  65  72 MISG      30.26R
PAMPA          CLOUDY    81  70  68 SE7       30.22R
PERRYTON       NOT AVBL
$$

SOUTHERN PANHANDLE/SOUTH PLAINS/ROLLING PLAINS

CITY           SKY/WX    TMP DP  RH WIND       PRES   REMARKS
LUBBOCK        MOCLDY    78  67  68 NE10      30.19R
SNYDER         CLEAR     88  62  41 E6        30.11R
CHILDRESS      PTCLDY    86  68  54 E3        30.10S
SEMINOLE       PTCLDY    88  52  29 E6        30.16R
$$

PERMIAN BASIN

CITY           SKY/WX    TMP DP  RH WIND       PRES   REMARKS
MIDLAND        CLEAR     92  53  26 E9        30.11R
ODESSA         CLEAR     92  51  24 E8        30.12R
WINK           PTCLDY    93  51  23 SE8       30.07R
$$

FAR WEST/SOUTHWEST MOUNTAINS/TRANS PECOS

CITY           SKY/WX    TMP DP  RH WIND       PRES   REMARKS
ALPINE         CLEAR     82  49  31 SE7       30.27R
DRYDEN           N/A     93  49  22 S9        30.04R
EL PASO        CLOUDY    80  61  52 VRB3      30.15S
FORT STOCKTON  CLEAR     90  49  24 SE9       30.11R
GUADALUPE PASS MOCLDY    79  54  41 E10       30.29R
MARFA          MOCLDY    79  50  36 E8        30.24R
PECOS          CLEAR     92  50  23 E8        30.06R
$$

DALLAS/FORT WORTH METROPLEX

CITY           SKY/WX    TMP DP  RH WIND       PRES   REMARKS
DFW AIRPORT    PTCLDY    95  62  33 E6        30.00R
FTW MEACHAM    CLEAR     96  59  29 NE6       30.00R
DAL-EXECUTIVE  CLEAR     95  63  34 E5        30.00R
GRAND PRAIRIE  CLEAR     95  65  36 E6        30.01S
ADDISON        CLEAR     95  61  31 E6        30.02R
MESQUITE       CLEAR     93  63  37 CALM      30.00R
LANCASTER      CLEAR     90  64  41 CALM      30.00S
$$

NORTH CENTRAL TEXAS

CITY           SKY/WX    TMP DP  RH WIND       PRES   REMARKS
SHRMAN/DENISON CLEAR     87  73  63 E9        30.05R
GAINESVILLE    CLEAR     88  67  50 NE3       30.06R
BRIDGEPORT     NOT AVBL
DENTON         CLEAR     93  67  42 NE7       30.01R
WAXAHACHIE     CLEAR     90  67  46 CALM      30.02R
GRANBURY       PTCLDY    94  62  34 E5        30.02S
$$

WESTERN NORTH TEXAS

CITY           SKY/WX    TMP DP  RH WIND       PRES   REMARKS
WICHITA FALLS  CLEAR     90  67  46 E8        30.03R
VERNON         CLEAR     91  64  39 E9        30.06S
BRECKENRIDGE   CLEAR     91  66  44 SE6       30.04R
COMANCHE       PTCLDY    89  67  46 E5        30.05R
$$

CENTRAL AND SOUTH CENTRAL TEXAS

CITY           SKY/WX    TMP DP  RH WIND       PRES   REMARKS
AUSTIN/BERGSTM MOCLDY    86  67  52 SE5       29.99R
WACO           CLEAR     92  65  40 E5        29.99R
HILLSBORO      CLEAR     92  61  35 E6        30.01R
TEMPLE         PTCLDY    91  63  38 E3        30.01R
KILLEEN-GRAY   NOT AVBL
FORT HOOD      PTCLDY    93  63  36 E7        30.01R
GEORGETOWN     CLEAR     93  63  36 CALM      30.00R
LAGO VISTA     FAIR      90  61  38 SE3       30.04R
SAN MARCOS     CLEAR     90  64  43 SE3       30.00R
NEW BRAUNFELS  CLEAR     87  69  54 S6        29.98R
RANDOLPH AFB   CLEAR     85  68  55 SE5       30.00R
SAN ANTONIO    MOCLDY    90  65  43 SE9       30.01R
STINSON        CLEAR     89  68  49 CALM      29.98R
PLEASANTON     NOT AVBL
LA GRANGE      CLEAR     90  75  62 CALM      29.97R
GIDDINGS       PTCLDY    87  68  53 CALM      30.03R
$$

EAST TEXAS

CITY           SKY/WX    TMP DP  RH WIND       PRES   REMARKS
PARIS          PTCLDY    82  66  57 E9        30.04S
CLARKSVILLE    NOT AVBL
TYLER          CLEAR     91  70  49 NE10G21   30.02R
LONGVIEW       PTCLDY    84  71  65 E8        30.03R
PALESTINE      PTCLDY    90  72  55 NE3       30.00S
NACOGDOCHES    CLOUDY    75  73  94 E3        30.05R
$$

TEXAS HILL COUNTRY AND EDWARDS PLATEAU

CITY           SKY/WX    TMP DP  RH WIND       PRES   REMARKS
LLANO          CLEAR     91  57  31 SE3       30.05R
HORSESHOE BAY  FAIR      90  58  34 S3        30.03R
KERRVILLE      CLEAR     87  63  44 CALM      30.06R
FREDERICKSBRG  CLEAR     87  57  36 CALM      30.07R
ROCKSPRINGS    PTCLDY    88  55  33 SE8       30.11R
HONDO          CLEAR     88  63  43 SE6       30.03R
UVALDE         CLEAR     85  61  43 E6        30.02R
DEL RIO        CLEAR     93  54  26 SE10      29.98R
$$

SOUTHEAST TEXAS

CITY           SKY/WX    TMP DP  RH WIND       PRES   REMARKS
COLLEGE STN    MOCLDY    86  73  65 S3        30.00R
CALDWELL       PTCLDY    88  70  55 CALM      30.02R
CROCKETT       MOCLDY    90  75  62 E6        30.04R
BRENHAM        MOCLDY    91  71  52 NW6       30.01R
HUNTSVILLE     CLOUDY    88  71  57 S5        30.00F
CONROE         CLOUDY    79  75  87 SE3       30.01R
HOUSTON BUSH   CLOUDY    83  78  85 CALM      30.00R
HOUSTON HOBBY  MOCLDY    90  75  61 E5        30.00R
PERLAND        MOCLDY    91  76  61 E7        30.01R
WHARTON        PTCLDY    88  74  62 S7        29.99R
$$

THE UPPER TEXAS COAST

CITY           SKY/WX    TMP DP  RH WIND       PRES   REMARKS
ORANGE         CLOUDY    82  72  72 CALM      30.04R
PORT ARTHUR    CLOUDY    84  76  76 E15G23    30.02R
GALVESTON      MOCLDY    87  80  79 SW6       30.01R
ANGLETON       PTCLDY    86  77  74 S6        30.00R
BAY CITY       PTCLDY    85  78  79 CALM      29.99R
$$

TEXAS COASTAL BEND, RIO GRANDE PLAINS DEEP SOUTH TEXAS

CITY           SKY/WX    TMP DP  RH WIND       PRES   REMARKS
VICTORIA       PTCLDY    81  77  88 S5        29.99R
BEEVILLE       FAIR      86  70  58 S6        29.99R
ROCKPORT       MOCLDY    85  75  72 VRB7      29.98R
PORT ARANSAS   PTCLDY    83  77  81 S8        29.99R
PORT LAVACA    PTCLDY    84  73  70 S7        29.99R
CORPUS CHRISTI MOCLDY    86  72  62 SE10      29.99R
KINGSVILLE NAS MOCLDY    83  77  82 SE7       29.99R
COTULLA        PTCLDY    94  63  35 E7        29.98R
LAREDO         CLEAR     94  61  33 E9        29.98R
BROWNSVILLE    CLEAR     82  75  79 SE8       29.99S
PORT ISABEL    CLEAR     82  75  79 SE8       29.99R
HEBBRONVILLE     N/A     89  63  41 E9        30.01R
MCALLEN        CLEAR     91  71  51 SE13      29.98R
WESLACO        PTCLDY    88  70  56 SE7       29.98R
FALFURRIAS     MOCLDY    85  71  62 SE5       29.98S
EDINBURG       PTCLDY    88  73  59 E12       29.99R
$$


USA.gov is the U.S. government's official web portal to all federal, state and local government web resources and services.